Dewpoint
72 70 71 69 59 53 43 44 51 50 51 54 52 52 50 52 49 49 67 68 68 69 72 72 75 75 74 75 75 75 75 74 75 75 74 74 74 74 74 74 74 74 74 73 72 74 73 73 73
70 71 69 66 56 38 38 46 48 51 54 55 54 54 55 54 62 66 66 70 68 70 71 71 75 75 75 75 74 75 74 73 73 74 74 75 74 74 74 74 74 74 74 73 72 73 72 71 73
70 70 65 62 57 40 39 46 50 54 54 54 54 57 56 58 64 65 69 69 70 71 70 72 76 75 75 76 76 75 74 74 73 74 74 75 74 74 74 74 74 74 74 72 71 72 73 72 73
68 69 66 59 46 49 43 47 52 54 55 55 56 55 60 64 64 66 70 70 71 71 70 75 78 77 76 75 76 76 75 74 73 74 74 73 74 73 74 74 73 74 74 72 72 73 72 73 72
65 64 54 45 44 46 41 49 53 52 53 55 54 55 59 64 66 69 70 70 70 71 71 74 78 78 77 76 75 76 76 74 74 74 75 74 74 74 74 74 74 74 73 72 73 73 72 73 73
61 62 47 43 41 40 46 51 52 52 53 56 55 56 59 66 68 69 70 70 69 71 70 72 77 78 77 75 75 75 75 75 74 74 74 74 74 73 74 74 73 74 73 72 72 73 73 73 73
62 60 51 48 42 39 42 51 51 50 53 53 55 53 61 65 68 71 71 71 70 71 71 73 74 75 76 75 75 74 75 75 75 75 75 74 74 73 73 74 73 74 74 72 72 73 73 73 73
63 60 50 44 35 36 43 49 50 51 52 57 57 51 56 62 69 70 71 71 71 71 71 73 74 74 74 74 76 76 76 75 75 75 74 74 74 74 74 74 74 73 73 72 72 73 73 73 72
64 54 45 39 38 36 42 43 48 54 55 56 57 56 58 65 68 68 68 69 70 71 71 72 73 75 75 74 74 76 76 75 75 75 75 74 71 72 72 73 73 73 73 72 72 72 73 72 72
60 53 46 47 44 40 37 39 36 52 54 56 57 59 63 66 66 65 65 65 67 68 70 71 72 72 74 72 75 75 73 72 73 74 73 72 72 73 71 73 73 73 73 73 73 74 73 73 67
58 51 51 49 47 45 35 27 29 46 51 53 55 58 63 65 65 64 63 63 65 67 69 71 72 73 73 72 74 72 73 74 74 75 74 74 74 73 72 73 72 73 73 73 73 72 70 68 68
54 55 53 49 42 33 23 27 39 45 44 52 56 59 62 63 64 64 62 62 64 66 68 70 72 73 73 73 72 73 72 73 74 73 75 75 73 73 73 73 72 73 76 74 74 70 72 72 72
53 50 45 46 39 26 24 28 34 45 45 52 57 61 61 62 63 64 64 62 63 65 67 69 72 73 73 74 73 74 73 72 73 73 75 73 73 74 72 74 71 72 71 76 75 74 71 71 72
43 44 42 38 25 26 26 35 44 43 45 51 59 60 60 61 62 64 65 64 64 66 67 69 71 72 73 73 75 74 74 73 73 72 74 75 74 73 73 71 70 71 71 72 74 74 73 71 70
42 38 37 31 27 27 32 26 38 42 51 50 57 59 60 61 62 64 65 66 66 67 67 69 71 72 72 73 73 73 72 73 71 72 75 74 74 74 74 72 71 70 73 75 75 74 73 71 70
32 24 30 27 24 22 24 27 26 34 49 48 53 56 59 62 62 64 65 66 67 68 69 70 69 71 72 72 73 71 72 71 72 72 73 74 74 74 74 72 70 71 72 74 74 76 71 70 70
29 28 31 29 22 21 21 21 22 24 24 31 48 56 57 61 63 65 65 66 67 69 70 71 71 70 72 73 72 72 73 72 72 72 73 74 74 74 73 71 70 73 71 72 71 75 75 70 70
20 25 26 28 26 21 20 22 22 20 22 27 44 56 56 58 60 63 65 66 67 69 71 72 72 73 73 72 73 71 72 73 73 73 73 74 74 74 73 71 72 72 70 70 71 72 71 72 73
24 29 29 26 26 24 26 24 22 24 22 23 44 55 56 57 59 61 63 65 67 69 71 72 73 75 73 71 71 71 71 71 72 73 73 74 74 73 73 71 71 71 69 70 72 73 73 70 71
30 29 30 27 22 21 21 25 26 25 24 24 37 52 56 56 59 61 63 64 66 68 71 72 74 74 74 72 73 71 71 71 72 73 73 74 74 74 72 72 71 71 69 71 71 71 71 72 73
33 32 31 29 29 26 26 22 24 23 24 25 31 47 53 56 58 61 63 65 64 67 71 72 74 74 74 74 73 72 72 72 71 71 72 72 72 73 74 74 73 73 72 70 71 71 71 69 71
29 33 32 30 30 26 21 18 25 24 25 24 23 35 50 55 58 61 62 64 65 66 67 71 73 74 74 75 73 74 69 69 70 73 72 72 72 72 72 72 72 72 72 72 72 72 73 73 70
33 34 33 31 29 23 24 15 20 27 24 24 22 24 31 49 56 58 60 64 65 65 67 70 74 74 74 74 74 72 72 74 73 71 73 74 73 73 72 73 73 73 72 72 72 71 71 73 71
28 26 23 20 19 20 22 17 17 20 27 24 25 25 27 29 44 56 60 63 65 65 66 70 73 74 75 74 74 74 73 72 71 72 71 71 71 72 74 74 74 74 73 72 71 72 72 71 70
28 23 18 17 16 16 21 17 22 24 25 27 25 26 28 32 34 43 57 63 65 65 67 70 73 73 73 73 73 73 74 74 73 72 72 71 70 72 74 73 73 72 73 72 72 71 72 72 71
23 21 17 16 15 16 22 17 19 28 26 27 27 27 31 41 37 42 48 60 64 65 68 69 72 73 73 73 74 74 74 72 72 73 71 70 69 71 74 73 73 73 72 72 72 70 70 72 70
20 19 17 21 20 14 15 21 24 28 27 28 40 55 55 50 44 48 54 59 63 66 68 69 71 73 73 73 73 74 74 74 72 73 71 68 71 71 72 73 73 72 72 72 72 69 71 71 71
23 20 15 20 23 21 18 22 20 29 29 36 54 62 62 60 56 58 59 62 64 65 68 69 71 72 73 73 73 73 74 74 72 71 70 70 72 73 72 72 72 72 71 71 71 71 70 69 69
18 17 19 19 22 17 18 18 32 33 42 51 62 65 64 64 61 62 63 64 65 67 68 70 71 72 73 73 74 74 73 72 70 69 69 71 73 73 72 72 71 71 71 72 72 71 71 70 69
23 23 21 20 27 20 21 19 32 47 57 63 63 65 65 66 66 67 67 68 68 69 70 71 72 72 72 73 74 73 71 69 68 67 67 73 73 72 72 71 71 70 70 70 70 68 67 68 69
Lifted_Index
-2 -3 -3 -3 -3 -1 1 -0 -1 -2 -1 -1 -1 -0 -0 -1 -2 -3 -4 -5 -5 -5 -6 -6 -6 -6 -6 -6 -6 -6 -6 -6 -6 -6 -5 -5 -5 -5 -5 -5 -5 -5 -4 -4 -3 -3 -3 -2 -2
-3 -3 -3 -3 -3 -1 0 -0 -1 -2 -2 -1 -1 -1 -1 -2 -3 -4 -4 -5 -5 -6 -6 -6 -6 -6 -6 -6 -6 -6 -6 -6 -5 -5 -6 -5 -5 -5 -5 -5 -5 -5 -4 -4 -3 -3 -2 -2 -2
-4 -4 -4 -3 -3 -1 -0 -1 -2 -2 -2 -2 -2 -2 -2 -3 -3 -4 -5 -5 -5 -6 -6 -6 -7 -7 -7 -7 -7 -6 -6 -5 -5 -5 -6 -6 -5 -5 -5 -5 -5 -5 -4 -3 -3 -3 -2 -2 -2
-4 -4 -3 -3 -2 -2 -1 -2 -2 -2 -2 -2 -2 -2 -3 -3 -3 -4 -5 -5 -5 -6 -6 -7 -7 -7 -7 -7 -7 -7 -7 -6 -5 -6 -6 -6 -6 -5 -5 -5 -5 -5 -4 -3 -3 -3 -3 -3 -3
-4 -3 -2 -1 -1 -1 -2 -2 -3 -3 -3 -3 -2 -2 -3 -3 -4 -4 -5 -5 -5 -5 -6 -7 -7 -8 -7 -7 -7 -7 -7 -6 -6 -6 -6 -6 -6 -5 -5 -5 -5 -5 -4 -4 -3 -3 -3 -3 -3
-4 -3 -2 -1 0 0 -1 -3 -3 -3 -3 -3 -3 -3 -3 -4 -4 -5 -5 -5 -5 -5 -5 -6 -7 -7 -7 -7 -7 -7 -7 -7 -6 -6 -6 -6 -5 -5 -5 -5 -5 -5 -4 -4 -4 -4 -3 -3 -3
-4 -4 -2 -1 1 1 -1 -3 -3 -3 -3 -3 -3 -3 -3 -4 -5 -5 -5 -5 -5 -5 -5 -6 -6 -7 -7 -7 -7 -7 -7 -7 -7 -6 -6 -6 -5 -5 -5 -5 -5 -5 -4 -4 -4 -4 -4 -3 -3
-5 -4 -2 -0 1 2 0 -2 -3 -3 -4 -3 -3 -3 -3 -4 -5 -5 -5 -5 -5 -5 -5 -6 -6 -7 -7 -7 -7 -7 -7 -7 -7 -7 -6 -6 -6 -5 -5 -5 -5 -5 -4 -4 -3 -4 -4 -3 -3
-5 -3 -2 0 1 2 1 0 -1 -3 -4 -4 -4 -3 -4 -4 -5 -4 -4 -4 -4 -5 -5 -6 -6 -7 -7 -7 -7 -7 -7 -7 -7 -7 -7 -6 -6 -5 -5 -5 -5 -5 -4 -4 -4 -4 -4 -3 -3
-4 -3 -2 -0 1 2 2 2 0 -2 -4 -4 -4 -4 -4 -5 -4 -4 -3 -3 -4 -4 -5 -5 -6 -6 -7 -7 -7 -7 -7 -7 -7 -7 -6 -6 -6 -5 -5 -5 -5 -4 -4 -4 -4 -4 -4 -3 -3
-3 -3 -2 -1 0 1 2 2 1 -1 -3 -4 -4 -4 -5 -5 -4 -4 -3 -3 -3 -3 -4 -5 -5 -6 -6 -6 -6 -6 -7 -7 -7 -7 -6 -6 -6 -5 -5 -5 -5 -5 -4 -4 -4 -4 -4 -3 -3
-2 -2 -2 -1 0 1 2 2 1 -1 -2 -3 -4 -5 -5 -5 -5 -4 -3 -3 -3 -3 -4 -4 -5 -5 -6 -6 -6 -6 -6 -6 -6 -6 -6 -6 -6 -5 -5 -4 -4 -4 -4 -4 -4 -4 -4 -3 -3
-0 -0 -1 -0 1 1 2 2 1 -1 -2 -3 -4 -5 -5 -5 -5 -4 -4 -3 -3 -3 -4 -4 -5 -5 -5 -5 -6 -6 -6 -6 -6 -6 -6 -6 -5 -4 -4 -4 -4 -4 -4 -4 -4 -4 -4 -4 -4
2 1 1 1 1 1 2 2 1 -1 -1 -2 -4 -4 -4 -5 -5 -5 -5 -4 -3 -3 -4 -4 -5 -5 -5 -5 -5 -5 -5 -5 -5 -6 -6 -5 -5 -4 -4 -4 -4 -4 -4 -4 -4 -4 -4 -4 -3
3 3 2 2 2 2 2 1 1 -0 -1 -2 -3 -4 -4 -5 -5 -5 -5 -5 -4 -4 -4 -4 -5 -5 -5 -5 -5 -5 -5 -5 -5 -5 -5 -5 -5 -4 -4 -4 -4 -4 -4 -5 -5 -5 -4 -4 -3
4 4 3 2 2 2 2 1 1 1 -0 -1 -3 -4 -4 -4 -5 -5 -5 -5 -5 -5 -5 -4 -4 -4 -4 -4 -4 -4 -4 -4 -5 -5 -5 -5 -5 -4 -4 -4 -4 -4 -4 -5 -5 -5 -4 -3 -3
4 4 3 2 2 3 2 2 2 1 1 0 -1 -3 -4 -4 -5 -5 -5 -5 -5 -5 -5 -5 -5 -5 -5 -4 -4 -4 -4 -4 -5 -5 -5 -5 -5 -5 -4 -4 -4 -4 -4 -4 -4 -4 -4 -3 -3
4 3 3 3 3 3 3 3 2 2 1 1 -0 -3 -3 -4 -4 -5 -5 -5 -5 -5 -5 -6 -5 -5 -5 -5 -4 -4 -4 -5 -5 -5 -5 -5 -5 -4 -4 -4 -4 -3 -3 -4 -4 -4 -4 -4 -3
3 3 2 2 3 3 4 4 3 2 1 1 -0 -2 -3 -4 -4 -4 -4 -5 -5 -5 -6 -6 -6 -6 -6 -5 -5 -5 -5 -5 -5 -5 -5 -5 -5 -4 -4 -4 -3 -3 -3 -3 -3 -3 -3 -3 -3
3 2 2 2 2 3 4 4 3 2 1 1 0 -2 -3 -3 -4 -4 -4 -4 -5 -5 -6 -6 -7 -7 -6 -6 -6 -5 -5 -5 -5 -5 -5 -5 -5 -5 -4 -4 -4 -3 -3 -3 -3 -3 -3 -3 -3
2 2 1 1 2 2 3 3 3 2 1 1 0 -1 -2 -3 -4 -4 -4 -4 -4 -5 -5 -6 -7 -7 -7 -7 -6 -6 -5 -5 -5 -6 -6 -5 -5 -5 -5 -4 -4 -4 -3 -3 -3 -3 -3 -3 -3
1 1 0 0 1 1 2 2 3 2 1 1 0 -0 -1 -2 -3 -4 -4 -4 -5 -5 -5 -6 -6 -7 -7 -7 -7 -6 -6 -6 -6 -6 -5 -5 -5 -5 -5 -4 -4 -4 -4 -3 -3 -3 -3 -3 -3
0 0 0 0 0 1 2 2 2 2 1 1 0 0 -0 -1 -2 -3 -4 -4 -5 -5 -5 -5 -6 -7 -7 -7 -7 -6 -6 -6 -6 -5 -5 -4 -5 -5 -5 -5 -5 -4 -4 -3 -3 -2 -2 -2 -2
0 1 1 1 0 1 1 2 2 2 1 1 1 1 1 0 -0 -1 -3 -4 -5 -5 -5 -5 -6 -7 -7 -7 -7 -7 -6 -6 -5 -5 -4 -3 -3 -4 -5 -5 -5 -5 -4 -3 -2 -2 -2 -2 -2
1 1 1 0 -0 0 1 1 1 1 1 1 1 1 1 1 1 0 -2 -3 -4 -5 -5 -5 -6 -6 -7 -7 -7 -7 -7 -6 -6 -5 -3 -2 -2 -4 -5 -5 -5 -5 -4 -3 -3 -2 -2 -2 -2
0 -0 -0 -0 -0 -0 0 1 1 1 1 1 1 0 0 1 1 1 -0 -3 -4 -5 -5 -6 -6 -7 -7 -7 -7 -7 -7 -7 -6 -5 -4 -2 -3 -5 -5 -5 -5 -4 -4 -4 -3 -3 -3 -2 -2
-0 -0 -0 -0 -0 -0 0 1 1 0 1 0 -1 -2 -2 -1 0 0 -1 -2 -4 -5 -5 -6 -6 -7 -7 -7 -7 -7 -7 -7 -7 -6 -4 -4 -4 -5 -5 -5 -5 -4 -4 -4 -3 -3 -3 -2 -2
0 -0 -0 0 0 0 1 1 1 1 0 -1 -3 -5 -4 -3 -2 -2 -2 -3 -4 -5 -5 -6 -7 -7 -7 -7 -7 -7 -7 -7 -6 -5 -4 -5 -5 -6 -5 -5 -5 -4 -4 -3 -3 -3 -3 -2 -1
0 -0 -0 0 0 0 0 1 1 0 -1 -3 -6 -6 -6 -5 -4 -4 -4 -5 -5 -6 -6 -7 -7 -7 -7 -7 -7 -7 -7 -6 -5 -4 -4 -5 -6 -6 -6 -5 -5 -4 -3 -3 -3 -3 -2 -2 -1
-0 -0 -0 0 0 0 0 1 2 -0 -4 -6 -7 -7 -7 -6 -6 -6 -6 -6 -6 -6 -7 -7 -7 -7 -7 -7 -8 -7 -7 -5 -4 -3 -4 -6 -7 -6 -5 -5 -4 -4 -3 -3 -3 -2 -2 -2 -2